"Pseudo-MPEC" for P10Ojpd

Created 2019 Jun 15 19:09:09 UT using Find_Orb

Click here for an explanation of pseudo-MPECs

 
 Astrometry: 
     P10Ojpd  C2019 05 291^*kaqp6aOBf,n^9+ker8X+B)Ca/bV@Faf.26DMefnL5R?Q^0p0HF51
     P10Ojpd  C2019 05 29Ooj28,AbG#\/ir-=7N1cc=(n!8de;mZ+Lk!M.=Ney7UKDLcr][/)F51
     P10Ojpd  C2019 05 29V!nu;0A\mCcU:7An(v?MH\y_c[9LI'2ED(U#7GF!#;lD/ut(ve![F51
     P10Ojpd  C2019 05 29(6NTUx[ACYIR3Mi5MD8hk6w@dB`EwuM4I[CGpdD*hv=o@RBdDe/4F51
     P10Ojpd KC2019 05 31Oxvq8Ao3H]7]8TD]823/'Sb$r`i'u_WM\(fWQS4D=n]q9tcK-s-;H21
     P10Ojpd KC2019 05 31513uTnJ9KxO.-_Kgtp*BSV['?a48n)MY#g1'6AstrometryY0Dw=H21
     P10Ojpd |C2019 06 03^I*2s4TLj6S0wAEK*$Aak,hKwH[uyxY\kuqF!;6.%3*(2/f6PM'7807
     P10Ojpd |C2019 06 03;,redacted;h=hcqfwsIhIthJ5$3;k=w#LcmV6tG+[5#IytiPmlp807
     P10Ojpd |C2019 06 03fauV?.K1%hQeclick\aU0/:kD=nw7^M_PF/q-*MLlR7qTZsd(sBL807
     P10Ojpd  C2019 06 03q:@IQhere$Pj/P]^-dQ_U95%fQCnfor2p6^g*$j6)A8qZr/?%MJdF52
     P10Ojpd  C2019 06 03(LW+CINk[D[?ffxV[Q\M#=Ef6J9`hAfy9rvcgxEHr14pAjQMMXPjF52
     P10Ojpd  C2019 06 03#Z'/@IP`HDXDaYe_X31C'dl27?DAcG7C(F=QQ$Su6Q\Iu'*-J`hiF52
     P10Ojpd KC2019 06 09RUZLyViGmgO:*[kb4@yfH(w*f*.LswYN2_'hNN5;XO9tb':;mpdP691
     P10Ojpd KC2019 06 09nHRVi%.-ta5b5cQ+u'+hUGpJc=@Mm4OdA+-Fm/Tgpi)_,[j\OJqw691
     P10Ojpd KC2019 06 09tu`8g_PIq!VroeL65o@u!Ue]q;bBl6RN4?4d[76\nb+34B#]x^q=691
     P10Ojpd  C2019 06 11vB28$N6VWJOEi0\%G*g,rU(u8DsPo67I0'GF^$q3I:x+syj:_bohF52
     P10Ojpd  C2019 06 11]a20k(rs#j)+7PCexplanationo!0;.$4aHNG0wiG8!1)]1!W5F`F52
     P10Ojpd  C2019 06 11t7j=-EM%`6]NQ+VRo-ApEC'Om*7\PRVhBMOhT(j81BwAtmOpcN9kF52

Station data:
(691) Steward Observatory, Kitt Peak - Spacewatch  (N31.962174 W111.600327)
   US/Arizona.  Observer J. V. Scotti. 0.9-m f/3 reflector + CCD.
(807) Cerro Tololo Observatory, La Serena  (S30.169136 W70.805900)  Chile.
(F51) Pan-STARRS 1, Haleakala  (N20.707235 W156.255910)  US/Hawaii.
   Observers N. Primak, A. Schultz, S. Watters, J. Thiel, T. Goggia. Measurer
   PS1 Science Consortium. 1.8-m Ritchey-Chrétien + CCD.
(F52) Pan-STARRS 2, Haleakala  (N20.707384 W156.255910)  US/Hawaii. 1.8-m
   Ritchey-Chrétien + CCD.
(H21) Astronomical Research Observatory, Westfield  (N39.483057 W87.968270)
   US/Illinois. 0.76-m f/3.0 astrograph + CCD.

Orbital elements:  P10Ojpd
   Perihelion 2023 Apr 15.687404 +/- 44.4 TT = 16:29:51 (JD 2460050.187404)
Epoch 2019 Jun 11.0 TT = JDT 2458645.5   Ju: 0.1872           AutoNEOCP
M 241.96645600 +/- 3.6              (J2000 ecliptic)
n   0.08402833 +/- 0.000334         Peri.  158.39278 +/- 2.6
a   5.16240662 +/- 0.0137           Node   272.24078 +/- 0.08
e   0.0568158 +/- 0.00971           Incl.   34.63352 +/- 0.06
P  11.73                   H 14.4   G  0.15   U  7.5  
q 4.86910010 +/- 0.0586    Q 5.45571315 +/- 0.0429
From 18 observations 2019 May 29-June 11; mean residual 0".13
Residuals in arcseconds: 
190529 F51  .00   .05+    190603 807  .05+  .04-    190609 691  .03-  .06+    
190529 F51  .00   .00     190603 807  .02+  .17-    190609 691  .01+  .14-    
190529 F51  .08+  .17-    190603 807  .30+  .20+    190609 691  .06+  .26+    
190529 F51  .14-  .05-    190603 F52  .28-  .23-    190611 F52  .02+  .04-    
190531 H21  .01+  .08+    190603 F52  .17-  .15+    190611 F52  .14+  .07-    
190531 H21  .07+  .20+    190603 F52  .01+  .17-    190611 F52  .18-  .01+    

Ephemerides (geocentric):
Date (UTC) HH   RA              Dec         delta   r     elong  mag " sig PA
---- -- -- --  -------------   -----------  ------ ------ -----  --- ---- ---
2019 06 15 19  20 29 26.474   +03 52 33.86  4.6075 5.3110 129.4 21.9 .522  62
2019 06 15 20  20 29 25.615   +03 52 45.72  4.6071 5.3110 129.5 21.9 .527  62
2019 06 15 21  20 29 24.755   +03 52 57.58  4.6067 5.3110 129.5 21.9 .532  62
2019 06 15 22  20 29 23.894   +03 53 09.43  4.6062 5.3110 129.5 21.9 .537  62
2019 06 15 23  20 29 23.032   +03 53 21.27  4.6058 5.3109 129.6 21.9 .542  62
2019 06 16 00  20 29 22.169   +03 53 33.10  4.6053 5.3109 129.6 21.9 .548  62
2019 06 16 01  20 29 21.305   +03 53 44.92  4.6049 5.3109 129.6 21.9 .553  62
2019 06 16 02  20 29 20.439   +03 53 56.74  4.6044 5.3109 129.7 21.9 .558  62
2019 06 16 03  20 29 19.573   +03 54 08.55  4.6040 5.3109 129.7 21.9 .563  62
2019 06 16 04  20 29 18.705   +03 54 20.35  4.6035 5.3109 129.8 21.9 .569  62
2019 06 16 05  20 29 17.836   +03 54 32.15  4.6031 5.3109 129.8 21.9 .574  62
2019 06 16 06  20 29 16.966   +03 54 43.93  4.6026 5.3108 129.8 21.9 .579  62
2019 06 16 07  20 29 16.095   +03 54 55.71  4.6022 5.3108 129.9 21.9 .585  62
2019 06 16 08  20 29 15.223   +03 55 07.48  4.6018 5.3108 129.9 21.9 .590  62
2019 06 16 09  20 29 14.350   +03 55 19.25  4.6013 5.3108 129.9 21.9 .595  62
2019 06 16 10  20 29 13.476   +03 55 31.01  4.6009 5.3108 130.0 21.9 .601  62
2019 06 16 11  20 29 12.601   +03 55 42.76  4.6004 5.3108 130.0 21.9 .606  62
2019 06 16 12  20 29 11.724   +03 55 54.50  4.6000 5.3107 130.0 21.9 .612  62
2019 06 16 13  20 29 10.847   +03 56 06.23  4.5995 5.3107 130.1 21.9 .617  62
2019 06 16 14  20 29 09.968   +03 56 17.96  4.5991 5.3107 130.1 21.9 .623  62
2019 06 16 15  20 29 09.088   +03 56 29.68  4.5987 5.3107 130.1 21.9 .628  62
2019 06 16 16  20 29 08.207   +03 56 41.39  4.5982 5.3107 130.2 21.9 .634  62
2019 06 16 17  20 29 07.325   +03 56 53.10  4.5978 5.3107 130.2 21.9 .639  62
2019 06 16 18  20 29 06.442   +03 57 04.79  4.5973 5.3107 130.3 21.9 .645  62
2019 06 16 19  20 29 05.558   +03 57 16.48  4.5969 5.3106 130.3 21.9 .650  62
2019 06 16 20  20 29 04.673   +03 57 28.16  4.5965 5.3106 130.3 21.9 .656  62
2019 06 16 21  20 29 03.787   +03 57 39.84  4.5960 5.3106 130.4 21.9 .661  62
2019 06 16 22  20 29 02.900   +03 57 51.50  4.5956 5.3106 130.4 21.9 .667  62
2019 06 16 23  20 29 02.011   +03 58 03.16  4.5951 5.3106 130.4 21.9 .673  62
2019 06 17 00  20 29 01.121   +03 58 14.81  4.5947 5.3106 130.5 21.9 .678  62
2019 06 17 01  20 29 00.231   +03 58 26.46  4.5943 5.3106 130.5 21.9 .684  62
2019 06 17 02  20 28 59.339   +03 58 38.09  4.5938 5.3105 130.5 21.9 .690  62
2019 06 17 03  20 28 58.446   +03 58 49.72  4.5934 5.3105 130.6 21.9 .695  62
2019 06 17 04  20 28 57.552   +03 59 01.34  4.5930 5.3105 130.6 21.9 .701  62
2019 06 17 05  20 28 56.657   +03 59 12.96  4.5925 5.3105 130.6 21.9 .707  61
2019 06 17 06  20 28 55.761   +03 59 24.56  4.5921 5.3105 130.7 21.9 .713  61
2019 06 17 07  20 28 54.864   +03 59 36.16  4.5916 5.3105 130.7 21.9 .719  61
2019 06 17 08  20 28 53.966   +03 59 47.75  4.5912 5.3104 130.8 21.9 .724  61
2019 06 17 09  20 28 53.067   +03 59 59.33  4.5908 5.3104 130.8 21.9 .730  61
2019 06 17 10  20 28 52.166   +04 00 10.91  4.5903 5.3104 130.8 21.9 .736  61
2019 06 17 11  20 28 51.265   +04 00 22.47  4.5899 5.3104 130.9 21.9 .742  61
2019 06 17 12  20 28 50.362   +04 00 34.03  4.5895 5.3104 130.9 21.9 .748  61
2019 06 17 13  20 28 49.458   +04 00 45.59  4.5890 5.3104 130.9 21.9 .754  61
2019 06 17 14  20 28 48.554   +04 00 57.13  4.5886 5.3104 131.0 21.9 .760  61
2019 06 17 15  20 28 47.648   +04 01 08.67  4.5882 5.3103 131.0 21.9 .766  61
2019 06 17 16  20 28 46.741   +04 01 20.20  4.5877 5.3103 131.0 21.9 .772  61
2019 06 17 17  20 28 45.833   +04 01 31.72  4.5873 5.3103 131.1 21.9 .778  61
2019 06 17 18  20 28 44.924   +04 01 43.23  4.5869 5.3103 131.1 21.9 .784  61